📊 Raw Sensor Data

Showing records 39926 to 39950 of 84,954 total

ID Distance (ft) Battery V Battery A Int Temp (°F) Int Humid (%) Ext Temp (°F) Solar V RSSI SNR Time Stamp
45041 15.2 3.89 12 63 42 65 4.50 -65 8 07/01/2025 07:00 AM
45040 15.2 3.91 -7 61 42 68 4.50 -66 7 07/01/2025 06:45 AM
45039 15.2 3.95 9 59 42 66 4.50 -66 7 07/01/2025 06:30 AM
45038 15.1 3.88 0 57 43 62 4.50 -67 8 07/01/2025 06:15 AM
45037 15.1 3.86 -7 56 43 58 4.50 -66 8 07/01/2025 06:00 AM
45036 15.1 3.86 -10 55 44 57 4.10 -67 9 07/01/2025 05:45 AM
45035 15.1 3.92 -5 55 44 56 0.70 -65 8 07/01/2025 05:30 AM
45034 15.1 3.87 -5 55 44 57 0.00 -66 7 07/01/2025 05:15 AM
45033 15.1 3.87 -5 56 44 57 0.00 -66 8 07/01/2025 05:00 AM
45032 15.1 3.87 -5 56 43 58 0.00 -65 8 07/01/2025 04:45 AM
45031 15.1 3.92 -5 56 44 59 0.00 -66 8 07/01/2025 04:30 AM
45030 15.1 3.87 -5 56 44 58 0.00 -66 7 07/01/2025 04:15 AM
45029 15.1 3.87 -5 57 44 57 0.00 -66 8 07/01/2025 04:00 AM
45028 15.1 3.87 -5 57 44 59 0.00 -65 8 07/01/2025 03:45 AM
45027 15.1 3.87 -5 57 44 59 0.00 -65 8 07/01/2025 03:30 AM
45026 15.1 3.93 -5 58 44 59 0.00 -66 8 07/01/2025 03:15 AM
45025 15.1 3.87 -5 58 45 59 0.10 -66 8 07/01/2025 03:00 AM
45024 15.1 3.87 -5 58 45 59 0.00 -66 8 07/01/2025 02:45 AM
45023 15.1 3.87 -5 59 45 60 0.10 -65 7 07/01/2025 02:30 AM
45022 15.1 3.93 -5 59 45 60 0.00 -66 8 07/01/2025 02:15 AM
45021 15.1 3.93 -5 60 45 60 0.00 -66 8 07/01/2025 02:00 AM
45020 15.1 3.93 -5 61 45 61 0.00 -66 8 07/01/2025 01:45 AM
45019 15.1 3.93 -5 61 45 62 0.00 -66 8 07/01/2025 01:30 AM
45018 15.1 3.93 -5 62 45 62 0.00 -66 8 07/01/2025 01:15 AM
45017 15.1 3.93 -5 63 45 63 0.00 -65 8 07/01/2025 01:00 AM